Temp_Advection
nan nan nan nan nan nan nan nan nan nan nan nan nan nan nan nan nan nan nan nan nan nan nan nan nan nan nan nan nan nan nan nan nan nan nan nan nan nan
nan -3 -3 -2 -2 -1 -0 -1 -1 -0 -0 -0 0 0 0 0 -1 -0 -0 -1 -0 0 -0 0 1 -0 -0 0 0 -0 0 0 0 0 0 -0 0 nan
nan -3 -4 -3 -3 -2 -1 -1 -0 -1 -0 -1 -0 0 0 -0 -0 -1 -1 0 0 0 0 0 1 0 -0 0 0 0 0 0 0 0 0 0 0 nan
nan -1 -2 -3 -3 -3 -3 -1 -2 -1 -0 -0 -0 0 -0 -1 -0 -0 1 1 -0 -0 0 0 0 0 0 0 0 0 0 0 0 0 0 0 0 nan
nan -1 -1 -2 -3 -3 -4 -4 -2 -0 -1 -0 -0 0 -0 0 -0 -1 0 1 1 -1 -0 1 1 0 0 0 0 0 0 0 -0 0 0 -0 0 nan
nan -1 -1 -1 -2 -2 -3 -4 -3 -2 0 -1 -1 0 0 -0 0 1 -1 0 0 -0 -1 -0 1 1 0 0 0 0 0 0 0 1 0 -0 0 nan
nan -1 -1 -1 -1 -1 -3 -3 -2 -3 -3 -3 -1 -0 0 0 0 -0 -0 -1 -0 -0 1 0 -0 0 0 -0 -1 -0 0 0 0 0 0 0 0 nan
nan -0 -1 -1 -1 -1 -1 -2 -3 -4 -2 -3 -3 -1 0 -0 -0 0 0 1 1 -0 -1 -1 -0 0 -0 -0 -1 -0 -0 -0 0 1 1 -0 0 nan
nan -0 -1 -1 -1 -1 -1 -1 -4 -5 -4 -3 -4 -3 -0 -0 0 -0 -2 -1 -0 -0 -0 -0 -0 -0 -0 -1 -1 0 1 0 0 0 1 1 0 nan
nan -0 -1 -1 -1 -0 -1 -2 -2 -4 -6 -3 -3 -2 -0 -0 -2 -2 -1 3 3 1 0 -1 -1 -0 -0 -1 -0 1 1 1 0 1 1 1 0 nan
nan -1 -1 -1 -1 -1 -0 -0 -2 -3 -2 -2 -6 -4 -1 -1 -1 1 2 2 1 0 -0 -0 -0 -0 -1 -1 -0 1 1 0 0 1 1 0 -0 nan
nan -1 -1 -1 -1 -1 -1 -1 -1 -1 -2 -5 -2 -3 -7 -2 -0 -0 -0 0 0 -0 -0 0 0 0 -1 -2 -0 0 1 0 1 1 1 0 1 nan
nan -1 -1 -1 -1 -1 -1 -0 -0 -1 -1 -2 -4 -5 -4 -4 -0 -1 -1 0 -0 -1 -1 -0 0 -1 -2 -0 -0 0 1 1 1 1 0 0 0 nan
nan -1 -0 -1 -1 -1 -1 -1 -1 -1 -1 -1 -3 -5 -4 -2 -2 -2 -0 -1 -0 -0 -0 0 -0 -1 -0 0 -0 0 0 1 1 0 0 0 1 nan
nan -0 -1 -1 -1 -1 -1 -1 -2 -1 -1 -1 -2 -4 -5 -3 -1 -1 -1 -2 -0 0 1 0 -1 0 1 -0 0 0 0 1 0 1 1 1 1 nan
nan -1 -1 -1 -1 -1 -1 -0 -1 -2 -2 -1 -1 -4 -6 -4 -2 -1 -1 -1 0 1 0 0 0 1 1 0 0 0 0 0 1 1 1 1 2 nan
nan -0 -1 -1 -1 -1 -1 -1 -2 -3 -2 -1 -1 -2 -5 -6 -3 -0 -1 -0 0 1 1 0 1 1 1 0 1 0 -0 0 1 1 1 2 2 nan
nan -1 -1 -1 -1 -2 -1 -1 -2 -3 -2 -1 -2 -2 -5 -7 -3 -1 -1 -0 1 1 0 -0 1 1 1 1 0 0 0 1 1 1 1 1 2 nan
nan -1 -1 -1 -1 -2 -2 -2 -2 -3 -2 -1 -2 -3 -4 -6 -3 -1 0 1 1 1 -1 0 1 0 1 -0 -0 0 0 1 1 1 1 2 2 nan
nan -1 -1 -1 -1 -2 -1 -1 -2 -2 -1 -2 -3 -3 -4 -5 -3 -1 1 1 1 -0 -1 -0 -1 0 -0 -0 1 1 1 1 1 1 2 2 1 nan
nan -1 -1 -1 -1 -1 -2 -2 -2 -2 -1 -1 -4 -3 -3 -5 -2 -0 1 1 -1 -2 -1 -0 0 1 1 3 2 1 2 3 2 2 3 0 0 nan
nan -1 -1 -1 -1 -1 -1 -3 -3 -1 -1 -3 -3 -2 -3 -3 -2 0 0 -1 -2 0 2 1 1 2 3 3 2 2 2 2 2 4 3 1 4 nan
nan nan nan nan nan nan nan nan nan nan nan nan nan nan nan nan nan nan nan nan nan nan nan nan nan nan nan nan nan nan nan nan nan nan nan nan nan nan
Wind_Speed
39 41 40 40 37 35 31 30 45 31 33 32 32 38 45 47 46 46 45 41 42 41 41 40 38 34 31 30 29 29 29 28 26 24 23 23 24 26
38 40 41 41 41 39 37 32 32 39 33 35 36 35 35 43 45 47 49 47 45 43 42 43 41 38 36 35 33 31 31 30 29 29 29 30 27 27
37 38 42 41 42 43 41 43 31 42 50 44 33 36 37 37 37 38 43 50 48 46 46 44 42 43 40 39 37 35 34 32 30 29 29 28 28 33
37 35 38 39 42 42 44 43 45 27 45 45 44 36 39 40 36 35 37 44 48 48 48 46 46 43 44 42 41 39 38 36 34 33 32 31 30 27
36 37 38 36 40 42 44 46 46 44 27 49 43 40 43 38 39 36 35 38 42 45 47 48 49 49 45 45 43 42 42 40 37 37 36 34 32 32
38 39 38 38 39 41 42 45 45 47 45 29 52 41 38 43 44 42 41 38 39 42 44 44 47 49 48 45 47 46 45 43 41 40 40 37 36 35
40 41 40 41 39 39 40 45 40 43 45 47 40 50 45 42 45 43 41 43 42 41 42 45 47 48 51 52 49 49 50 46 45 43 42 39 39 38
42 43 43 41 42 40 42 43 45 48 47 42 41 37 47 52 53 52 48 39 41 47 45 45 43 47 48 51 52 54 52 50 46 48 47 44 40 40
44 44 45 46 40 43 42 40 42 49 54 55 54 40 42 56 53 51 50 49 45 39 43 51 49 51 48 47 48 52 57 54 50 49 49 47 42 41
44 46 46 46 46 44 44 44 44 46 55 57 62 64 40 35 58 56 54 56 53 43 47 47 48 52 50 47 48 46 50 55 52 50 49 47 43 41
44 46 46 47 45 42 43 48 49 53 52 50 54 65 66 45 40 53 52 50 46 47 47 48 49 48 47 43 42 40 41 45 46 48 47 43 41 38
48 47 43 44 44 42 44 47 48 56 48 48 52 44 62 66 48 54 56 54 46 37 51 49 42 42 40 43 43 42 40 38 38 38 40 40 38 37
48 49 46 45 44 44 46 51 58 52 44 44 42 50 41 61 70 51 60 58 48 48 42 48 49 47 44 30 41 44 41 38 38 39 40 40 40 39
49 52 55 50 48 48 48 49 52 51 49 47 47 44 48 47 59 65 58 62 58 56 48 45 49 54 53 46 36 37 46 42 41 41 42 40 40 40
47 53 53 55 55 54 52 55 55 52 54 51 50 54 56 46 50 56 58 64 60 57 54 47 49 47 48 52 50 44 38 43 44 44 44 42 43 43
46 49 50 54 56 56 55 57 58 57 56 56 54 56 54 47 51 55 58 61 62 58 56 52 51 47 46 46 49 48 45 44 42 45 42 39 42 43
46 47 47 47 51 53 54 58 58 57 57 59 54 54 55 64 48 60 58 56 63 61 61 56 51 47 45 41 42 49 47 46 42 40 39 42 41 39
41 43 44 44 45 50 53 54 56 58 58 58 57 53 55 67 50 56 61 58 63 55 58 62 57 47 46 46 45 46 48 45 43 43 40 41 43 37
42 42 44 43 46 50 58 56 55 58 57 56 57 56 54 64 48 61 59 61 59 55 62 61 61 57 52 48 50 50 48 47 48 43 41 44 46 38
46 46 45 42 40 31 47 51 53 52 56 56 57 53 57 60 57 58 58 62 59 54 59 58 57 59 58 56 51 52 50 50 52 49 44 39 33 31
50 49 48 44 39 24 37 48 50 51 53 54 59 54 58 62 52 58 58 58 58 61 58 60 57 51 55 51 45 40 44 45 46 47 47 40 35 34
52 53 50 48 41 28 15 46 49 49 51 59 49 53 56 62 57 55 57 49 54 61 56 52 50 50 54 55 49 47 41 38 39 41 41 35 41 40
54 53 50 50 44 33 15 26 47 49 49 50 52 55 54 61 60 57 54 59 60 53 53 50 46 46 47 49 51 49 48 45 43 40 35 34 28 31
Wind_Direction
268 267 265 262 257 253 246 242 241 224 230 220 217 228 230 234 233 233 237 234 228 229 229 229 226 225 228 226 224 223 223 227 232 235 238 241 241 245
273 268 264 261 260 255 245 250 243 232 232 223 226 227 234 236 238 236 236 240 233 231 233 233 233 228 229 230 228 229 231 231 234 240 245 247 249 254
276 275 267 265 260 257 254 248 241 243 235 241 231 231 235 241 240 237 237 235 238 233 234 235 235 232 229 230 231 231 234 237 238 240 246 250 256 257
275 273 270 267 261 258 255 251 250 239 237 244 236 231 229 242 245 243 237 227 232 235 233 236 236 236 233 230 232 232 235 237 239 243 247 250 252 254
274 271 270 268 265 260 256 254 249 244 244 238 240 226 229 233 241 244 239 233 232 238 235 235 236 234 234 234 233 234 236 237 238 242 245 248 253 255
272 269 268 267 266 263 260 254 251 252 244 257 231 226 232 226 237 238 236 234 232 231 234 238 233 234 232 235 233 234 237 239 242 243 245 246 251 253
281 280 275 268 264 262 262 257 254 255 253 247 244 233 225 224 221 224 225 238 234 235 233 234 232 231 235 233 234 237 237 238 240 242 246 248 251 254
279 278 276 272 269 264 260 259 253 248 244 250 245 232 228 228 223 226 227 219 222 234 232 234 233 235 236 233 235 238 238 236 238 241 244 248 253 253
279 278 278 275 269 267 264 260 258 252 248 246 243 234 234 228 225 221 221 226 227 230 233 234 235 237 237 239 241 243 239 238 239 243 244 248 253 253
276 278 276 274 274 270 268 265 259 257 250 245 243 238 228 229 234 235 242 247 237 230 234 236 239 240 242 245 247 249 238 236 239 240 243 244 248 250
279 281 277 275 272 266 262 262 262 256 251 245 251 245 241 232 231 238 232 225 223 224 227 233 240 243 245 244 247 246 239 237 241 240 239 241 242 238
286 284 274 271 269 264 258 257 256 256 256 254 240 253 246 235 230 234 232 223 221 218 229 223 224 231 234 240 241 238 236 233 232 229 228 231 229 230
288 284 277 276 271 264 258 255 253 255 255 255 252 240 248 247 237 237 230 233 227 222 226 230 224 224 228 233 232 236 237 232 229 226 223 225 230 236
284 283 280 277 273 267 260 255 255 253 249 248 246 250 232 237 240 235 230 232 237 237 233 231 229 230 228 224 225 230 228 229 228 228 228 230 234 238
284 284 280 276 272 268 262 256 251 249 244 241 240 238 228 234 232 232 231 234 233 232 233 228 233 232 231 232 228 224 224 227 226 226 228 230 236 237
295 289 281 277 272 267 262 255 248 244 239 237 235 237 232 224 225 223 221 223 220 220 222 226 231 236 233 231 231 229 227 224 224 224 226 232 236 234
301 293 286 277 269 261 253 248 241 237 235 232 232 233 231 220 230 216 220 218 221 219 222 223 226 225 226 232 232 231 229 227 222 223 228 234 234 227
311 303 293 287 271 262 249 242 235 228 228 226 227 228 228 222 225 210 214 213 218 217 221 223 220 214 217 223 228 232 225 226 233 234 224 222 222 215
321 311 303 292 289 269 239 233 229 223 221 220 223 223 224 223 225 209 204 208 212 218 225 223 219 218 213 216 220 221 230 238 233 223 227 224 217 214
329 321 316 307 309 286 231 224 222 221 217 218 220 220 218 218 224 220 207 208 207 207 214 220 218 222 220 217 218 226 230 228 224 221 207 201 201 202
332 329 328 324 325 321 236 226 221 220 216 215 217 219 216 214 216 199 198 199 197 205 214 218 222 225 227 223 215 211 211 216 222 217 197 192 192 195
338 337 338 339 338 340 262 227 220 214 214 216 218 219 212 209 215 208 206 203 208 215 219 222 220 220 220 221 212 204 188 189 198 198 194 212 207 191
343 343 345 350 354 357 328 219 214 215 214 218 217 210 214 208 215 211 195 201 209 210 215 215 214 214 211 208 210 193 186 183 184 181 182 189 198 200
Height
1464 1464 1465 1464 1466 1468 1469 1470 1474 1471 1474 1476 1476 1478 1481 1485 1489 1492 1496 1502 1507 1512 1517 1521 1525 1529 1533 1536 1540 1544 1548 1551 1554 1555 1558 1560 1562 1564
1454 1454 1454 1455 1456 1458 1460 1461 1461 1461 1464 1467 1468 1469 1473 1475 1478 1483 1487 1492 1498 1503 1507 1512 1516 1521 1525 1529 1533 1538 1541 1545 1548 1550 1552 1554 1557 1558
1447 1445 1443 1446 1445 1447 1449 1451 1451 1455 1453 1456 1459 1462 1464 1467 1470 1473 1477 1482 1486 1492 1498 1502 1507 1512 1517 1521 1525 1530 1534 1537 1540 1543 1545 1547 1550 1549
1437 1437 1434 1435 1435 1436 1438 1439 1440 1442 1444 1446 1448 1450 1453 1456 1461 1464 1466 1472 1476 1481 1488 1493 1497 1503 1508 1512 1517 1521 1525 1529 1533 1536 1538 1540 1542 1544
1429 1427 1426 1426 1425 1426 1428 1428 1430 1431 1434 1434 1435 1439 1444 1445 1451 1456 1459 1462 1466 1471 1477 1482 1486 1492 1497 1502 1507 1511 1515 1519 1524 1527 1530 1533 1535 1537
1419 1417 1416 1415 1415 1416 1417 1417 1418 1419 1422 1423 1425 1426 1433 1435 1440 1445 1449 1452 1456 1461 1465 1470 1475 1481 1486 1491 1497 1501 1506 1510 1514 1518 1520 1524 1527 1529
1409 1406 1404 1403 1404 1405 1405 1405 1408 1409 1410 1412 1412 1417 1420 1425 1428 1434 1438 1441 1446 1451 1455 1458 1464 1468 1473 1479 1485 1489 1494 1499 1504 1508 1511 1514 1518 1520
1398 1396 1394 1393 1391 1392 1392 1393 1395 1396 1397 1402 1402 1402 1405 1410 1418 1421 1427 1432 1434 1439 1443 1447 1451 1455 1460 1465 1471 1476 1482 1486 1492 1496 1500 1504 1507 1510
1388 1386 1383 1380 1381 1379 1380 1381 1380 1380 1382 1386 1388 1392 1394 1394 1406 1410 1414 1418 1421 1427 1432 1435 1439 1443 1449 1454 1459 1463 1467 1474 1480 1485 1489 1494 1497 1501
1377 1373 1371 1368 1368 1368 1367 1365 1364 1365 1367 1372 1372 1378 1381 1385 1391 1396 1399 1404 1413 1417 1422 1422 1427 1430 1438 1443 1447 1450 1454 1461 1468 1473 1477 1482 1486 1490
1363 1360 1357 1354 1353 1355 1355 1350 1350 1346 1352 1357 1360 1363 1368 1375 1382 1388 1387 1393 1396 1401 1406 1413 1414 1421 1425 1432 1436 1440 1444 1452 1456 1460 1466 1471 1476 1479
1348 1344 1343 1341 1338 1341 1340 1338 1336 1328 1339 1343 1347 1350 1353 1359 1364 1370 1373 1378 1385 1388 1389 1400 1405 1410 1416 1418 1424 1430 1435 1440 1444 1448 1454 1460 1465 1468
1334 1328 1326 1324 1324 1324 1325 1323 1317 1324 1328 1331 1333 1336 1341 1342 1346 1353 1357 1363 1370 1374 1378 1388 1392 1397 1403 1405 1411 1419 1425 1430 1433 1439 1444 1449 1454 1458
1321 1314 1308 1308 1307 1306 1307 1305 1305 1314 1315 1315 1317 1317 1324 1327 1329 1338 1345 1349 1356 1363 1371 1375 1380 1385 1391 1396 1399 1406 1413 1418 1424 1429 1434 1439 1444 1449
1309 1300 1294 1289 1287 1287 1287 1287 1292 1295 1295 1298 1297 1300 1305 1313 1319 1327 1334 1342 1346 1351 1357 1363 1368 1375 1380 1382 1388 1394 1401 1406 1412 1418 1424 1429 1433 1438
1292 1282 1276 1270 1266 1265 1265 1266 1268 1272 1275 1277 1279 1282 1291 1300 1303 1311 1319 1325 1332 1336 1343 1350 1356 1364 1367 1373 1380 1385 1390 1394 1400 1406 1414 1418 1423 1427
1276 1265 1256 1250 1242 1239 1239 1240 1243 1250 1254 1256 1261 1266 1274 1283 1287 1290 1301 1310 1315 1322 1330 1337 1345 1352 1358 1364 1370 1376 1380 1385 1391 1396 1402 1409 1413 1416
1261 1250 1239 1231 1223 1218 1216 1215 1218 1225 1231 1237 1243 1249 1255 1264 1272 1273 1283 1291 1299 1309 1316 1322 1332 1341 1346 1353 1359 1365 1370 1376 1381 1387 1391 1395 1401 1404
1249 1237 1224 1213 1202 1188 1186 1191 1196 1202 1210 1217 1226 1231 1239 1247 1257 1256 1263 1274 1287 1292 1303 1310 1318 1326 1333 1337 1347 1353 1358 1364 1370 1375 1379 1383 1389 1394
1237 1224 1210 1196 1182 1166 1165 1170 1177 1184 1192 1200 1209 1214 1223 1231 1240 1242 1246 1257 1268 1280 1287 1297 1304 1309 1315 1322 1332 1342 1346 1352 1357 1362 1368 1376 1382 1385
1228 1215 1199 1183 1170 1158 1154 1158 1163 1168 1175 1183 1192 1197 1206 1217 1224 1225 1234 1243 1253 1265 1273 1281 1287 1303 1310 1317 1324 1328 1334 1341 1348 1351 1357 1365 1370 1378
1223 1209 1192 1176 1162 1149 1141 1144 1149 1155 1161 1170 1174 1184 1190 1202 1210 1213 1224 1232 1242 1255 1264 1274 1281 1290 1299 1306 1311 1317 1323 1332 1342 1348 1352 1358 1363 1367
1222 1207 1192 1175 1159 1146 1136 1132 1135 1141 1147 1153 1162 1169 1178 1186 1195 1205 1216 1224 1238 1246 1253 1263 1272 1283 1288 1296 1301 1307 1314 1320 1332 1339 1346 1353 1360 1366